Regional Weather Roundup
Issued by NWS Wakefield, VA

Home | Current Version | Previous Version | Graphics & Text | Print | Product List | Glossary On
Versions: 1 2 3 4 5 6 7 8 9 10 11 12 13 14 15 16 17 18 19 20 21 22 23 24 25 26 27
000
ASUS41 KAKQ 222216
RWRAKQ

REGIONAL WEATHER ROUNDUP
NATIONAL WEATHER SERVICE WAKEFIELD VA
600 PM EDT THU JUN 22 2017

Note: "fair" indicates few or no clouds below 12,000 feet with no
significant weather and/or obstructions to visibility. * = Denotes
station may not report precipitation (e.g., rain,snow,etc.),
thunder or fog.

VAZ042-051-052>054-056-222300-
NORTHERN VIRGINIA

CITY           SKY/WX    TMP DP  RH WIND       PRES   REMARKS
WASH NATIONAL  CLOUDY    87  71  58 S8        29.95F
DULLES         CLOUDY    84  71  65 SW7       29.95F
FORT BELVOIR   CLOUDY    86  71  60 S5        29.95F
QUANTICO       CLOUDY    87  74  64 SW6       29.96F HX  95
FREDERICKSBRG* CLOUDY    86  73  63 SW7       29.95F
STAFFORD*      CLOUDY    84  73  69 CALM      30.00F
WARRENTON      CLOUDY    86  69  57 S5        29.97S
CULPEPER*      CLOUDY    85  73  66 SW6       29.97F
MANASSAS*      CLOUDY    85  74  69 S5        29.96F
LEESBURG*      CLOUDY    86  73  66 SW6       29.97F
WINCHESTER     CLOUDY    82  70  65 S6        29.97S
FRONT ROYAL*   CLOUDY    82  72  69 S3        29.96F
LURAY*         CLOUDY    82  72  69 S5        29.98F
$$

VAZ048-049-060>072-079>083-222300-
CENTRAL AND SOUTH CENTRAL VIRGINIA

CITY           SKY/WX    TMP DP  RH WIND       PRES   REMARKS
RICHMOND       CLOUDY    85  73  67 S12       29.98F
CHESTERFIELD*  NOT AVBL
PETERSBURG*    CLOUDY    82  71  68 CALM      30.01S
HANOVER        CLOUDY    85  69  58 SW10      29.99F
TAPPAHANNOCK*  CLOUDY    85  65  51 SW5       29.98S
QUINTON*       FAIR      84  75  74 MISG      29.98S
CHARLOTTSVILLE CLOUDY    84  72  67 SW8       29.98F
GORDONSVILLE*  CLOUDY    83  72  69 S7        29.97F
ORANGE*        CLOUDY    82  72  69 S3        29.98F
LOUISA*        CLOUDY    86  75  70 SW3       29.98F HX  95
BUMPASS*       FAIR      83  74  74 SW3       29.98F
FARMVILLE*     CLOUDY    82  67  58 SW6       30.00F
CREWE*         FAIR      81  65  57 CALM      30.01F
FORT PICKETT*  FAIR     N/A N/A N/A SW5       30.02S
CHASE CITY*    FAIR      83  73  72 CALM      30.03F
CLARKSVILLE*   FAIR      81  72  74 SW7       30.03S
SOUTH HILL*    CLOUDY    83  74  75 SW6       30.08F
LAWRENCEVILLE* FAIR      84  74  73 MISG      30.01F
EMPORIA*       PTSUNNY   84  72  65 S3        30.02F
$$

VAZ088>098-222300-
SOUTHEAST VIRGINIA

CITY           SKY/WX    TMP DP  RH WIND       PRES   REMARKS
NORFOLK        CLOUDY    88  67  49 SW9       29.99F
VIRGINIA BEACH CLOUDY    85  67  54 SW12      29.99F
NORFOLK NAVAL  CLOUDY    86  67  52 W9G18     30.01S
WEST POINT*    MOSUNNY   85  72  63 SW6       29.99S
SALUDA*        FAIR      86  73  63 SW3       29.97S
NEWPORT NEWS   MOSUNNY   84  72  67 SW12      29.99F
LANGLEY AFB    CLOUDY    85  73  68 SW10      29.99F
FORT EUSTIS    CLOUDY    86  75  70 SW6       29.97F
WILLIAMSBURG*  PTSUNNY   86  75  70 CALM      30.00S HX  95
HR EXEC AP*    FAIR      86  73  66 NW3       29.97F
FRANKLIN*      CLOUDY    82  70  65 SW7       30.01S
US460-WAKEFLD  CLOUDY    84  74  71 SW3       30.00F
$$

VAZ020-022-025-037-045-222300-
WEST CENTRAL AND SOUTHWEST VIRGINIA

CITY           SKY/WX    TMP DP  RH WIND       PRES   REMARKS
STAUNTON*      CLOUDY    82  69  64 SW8       30.03F
WAYNESBORO*    CLOUDY    80  70  70 S6        30.03F
HOT SPRINGS VA PTSUNNY   72  61  68 S7        30.17F
LYNCHBURG      CLOUDY    80  68  66 S7        30.03F
DANVILLE       PTSUNNY   77  71  82 S6        30.04F
SOUTH BOSTON*  FAIR      81  68  65 SW5       30.03F
MARTINSVILLE   CLOUDY    79  71  77 SW3       30.07F
ROANOKE        CLOUDY    82  64  54 W7        30.05F
BLACKSBURG     CLOUDY    77  66  68 SW5       30.13F
DUBLIN*        CLOUDY    76  64  65 SW9       30.11F
MARION*        CLOUDY    72  66  83 W5        30.16F
HILLSVILLE*    DRIZZLE   70  65  84 CALM      30.13F
RICHLANDS*     LGT RAIN  69  68  95 CALM      30.13F
WISE*          DRIZZLE   70  70 100 CALM      30.14F
ABINGDON*      LGT RAIN  73  70  89 SE5       30.11F
$$

MDZ021>025-VAZ099-100-222300-
SOUTHERN MARYLAND AND THE DELMARVA PENINSULA

CITY           SKY/WX    TMP DP  RH WIND       PRES   REMARKS
PATUXENT RIVER CLOUDY    85  73  67 S6        29.95F
BAY BRIDGE APT CLOUDY    86  72  62 SW3       29.94F
LEONARDTOWN    CLOUDY    84  72  65 SW6       29.98S
DOVER          CLOUDY    85  73  67 SW5       29.92F
GEORGETOWN     CLOUDY    86  71  60 SW10      29.95F
EASTON         CLOUDY    86  72  62 SW9       29.98F
CAMBRIDGE      SUNNY     84  73  70 S5        29.95F
SALISBURY      CLOUDY    84  74  71 SW6       29.96F
OCEAN CITY     PTSUNNY   84  70  62 W7        29.97F
WALLOPS ISLAND CLOUDY    84  71  65 W5        29.98S
ACCOMACK*      CLOUDY    86  72  62 SW8       29.98S
$$

NCZ012>017-030>032-222300-
NORTH CENTRAL AND EASTERN NORTH CAROLINA

CITY           SKY/WX    TMP DP  RH WIND       PRES   REMARKS
ROANOKE RAPIDS FAIR      82  72  69 SW8       30.03S
RALEIGH        CLOUDY    78  71  79 SW8       30.06F
ELIZABETH CITY PTSUNNY   86  76  71 SW12      30.01S HX  96
AHOSKIE*         N/A     82  76  80 CALM      30.02F
EDENTON*       PTSUNNY   86  74  68 CALM      30.03F
CURRITUCK*     PTSUNNY   88  72  58 SW7       30.01F
KILL DEVIL HLS PTSUNNY   85  73  66 CALM      30.01S
MANTEO         PTSUNNY   86  74  66 W7        30.03S
CAPE HATTERAS  PTSUNNY   81  76  84 SW10      30.05F
TARBORO*       NOT AVBL
GOLDSBORO      PTSUNNY   80  80 100 W9        30.04F
WASHINGTON     DRIZZLE   81  76  85 SW8       30.06S
GREENVILLE     CLOUDY    82  75  78 W7        30.07S HAZE
NEW BERN       LGT RAIN  80  77  90 W6        30.08S FOG
WILMINGTON     CLOUDY    79  76  90 CALM      30.07F
$$

VAZ048-222300-
ELSEWHERE

CITY           SKY/WX    TMP DP  RH WIND       PRES   REMARKS
HARRISBURG PA  CLOUDY    87  69  54 W8        29.91S
BALTIMORE      CLOUDY    86  71  60 SW6       29.94F
ANNAPOLIS      CLOUDY    85  72  65 SW7       29.94F
ANDREWS AFB    CLOUDY    85  70  62 SW12      29.95F
PHILADELPHIA   CLOUDY    87  67  51 SW12      29.92F
HENDERSON NC   CLOUDY    76  67  74 SW7       30.05F
GREENSBORO     CLOUDY    77  72  84 SW5       30.06F
ROCKY MOUNT    LGT RAIN  80  74  81 SW8       30.05F
$$

VAZ100-222300-
MARINE

STATION/POSITION TIME  TEMP    WIND        PRES    WAVE   SWELL
                       AIR SEA DIR/SP/G            HT/PER HT/PER
                 (UTC) (F)     (DEG/KT/KT) (MB)    (FT/S) (FT/S)
BRANDYWINE LGT   2148   78     190/ 11/ 14 1014.3F
CAPE MAY NJ      2148   76 72  170/  7/  9 1013.8F
LEWES DE         2148   85 73  250/  5/  8 1014.0F
15NM E FENWICK I 2150   73 70  200/ 12/ 14 1014.6F   2/ 5   2/ 7
OCEAN-CITY-INLET 2148   70 65  200/  8/ 10 1014.9F
WACHAPREAGUE VA  2148   87 81  230/  4/  7 1014.9F
THOMAS POINT MD  2200   84 78  210/  8/  8   N/A
GOOSES REEF MD   2200   83 81  230/  4/  6 1014.9    0
COVE POINT MD    2148   85     230/  6/  8 1014.8F
SOLOMONS ISLAND  2148   84 76  220/  5/  6   N/A
BISHOPS HEAD MD  2148   83 85  190/  7/  7 1014.8F
PINEY POINT MD   2148          240/  3/  4   N/A
POTOMAC MD       2200   85 82  250/  8/ 10 1013.7    1
CAMBRIDGE MD     2148   86 82              1015.1F
LEWISETTA VA     2148   85 78  280/  4/  5 1014.7F
RAPPAHANNOCK LGT 2148          180/  9/ 10 1015.6F
STINGRAY PT      2150   84     250/  8/ 10 1015.6F
YORK RVR RNG VA  2148   84     240/ 14/ 15 1015.6F
YORKTOWN VA      2148   84 76  230/  9/ 12 1015.1F
JAMESTOWN VA     2200   84 83  210/  6/  8   N/A     0
DOMINION TERM VA 2148   84     240/  8/  9 1015.9F
KIPTOPEKE VA     2148      80  240/ 10/ 12   N/A
CHES BAY BRIDGE  2148   84 75  250/ 12/ 13 1015.4F
CAPE HENRY VA    2148   86     220/  4/  8   N/A
WILLOUBY STN VA  2148   83     240/ 11/ 11 1015.5F
S CRANEY ISL VA  2148   86     240/  5/ 10 1015.7F
CAPE HENRY BUOY  2200      78                N/A     2/ 7
1ST LANDING BUOY 2200   82 77              1015.2    1/ 3
CAPE CHARLES BUO 2151      74                N/A     1/ 7
64NM E OF VA BCH 2150   74 73  210/  8/  8 1016.7F   2/ 9   2/ 9
DUCK PIER NC     2148   85 64  260/  8/ 11 1016.0F
44100 DUCK FRF   2105      71                N/A     2/ 7
OREGON INLET NC  2148          200/ 18/ 19 1016.7S
HATTERAS NC      2148   80 80  230/  9/ 14 1017.3F
DIAMOND SHLS NC  2150   80 81  240/ 14/ 17 1017.4F   2/ 7   2/ 7
CAPE LOOKOUT NC  2200   80     250/  8/ 11 1017.9F
$$




USA.gov is the U.S. government's official web portal to all federal, state and local government web resources and services.